Flag for Russia Weather past 2 weeks in Yakutsk, Russia

Now
-53 °F

Fog.


Feels Like: -53 °F
Forecast: -55 / -43 °F
Wind: No wind

Location: Jakutsk

Current Time: Dec 23, 2014 at 9:39:24 AM

Latest Report: Dec 23, 2014 at 9:00 AM


Visibility: 0 mi

Pressure: 30.18 "Hg

Humidity: 55%

Dew point: -62 °F

Location of YakutskLocation

Historic Weather in Yakutsk — Graph

°F

Yakutsk temperature yesterday

Maximum temperature yesterday: -51 °F (at 9:30 PM)
Minimum temperature yesterday: -58 °F (at 2:00 AM)
Average temperature yesterday: -56 °F

Past Weeks' High & Low Weather Summary

 TemperatureHumidityPressure
High-33 °F (Dec 11, 3:00 PM)73% (Dec 11, 2:00 PM)30.54 "Hg (Dec 11, 2:00 PM)
Low-58 °F (Dec 22, 2:00 AM)47% (Dec 22, 6:30 AM)30.09 "Hg (Dec 22, 12:30 PM)
Average-48 °F58%30.34 "Hg
* Reported Dec 8 8:00 AM — Dec 23 8:30 AM, Yakutsk, Weather by CustomWeather, © 2014

Note: Actual official high and low records may vary slightly from our data, if they occured in-between our weather recording intervals... More about our weather records

Advertising

Yakutsk weather history for previous 24 hours

 ConditionsComfort  
Time TempWeatherWind HumidityBarometerVisibility
8:30 AM
Dec 23
-53 °FFog.No wind55%30.18 "Hg0 mi
8:00 AM-53 °FFog.No wind49%30.18 "Hg0 mi
7:30 AM-54 °FFog.No wind55%30.18 "Hg1 mi
7:00 AM-54 °FFog.No wind55%30.18 "Hg1 mi
6:30 AM-54 °FFog.1 mph55%30.15 "Hg0 mi
6:00 AM-54 °FFog.1 mph55%30.15 "Hg0 mi
5:30 AM-54 °FFog.No wind55%30.15 "Hg0 mi
5:00 AM-54 °FFog.1 mph55%30.15 "Hg1 mi
4:30 AM-54 °FFog.1 mph55%30.15 "Hg0 mi
4:00 AM-54 °FFog.No wind55%30.15 "Hg0 mi
3:30 AM-54 °FFog.1 mph55%30.15 "Hg0 mi
3:00 AM-54 °FFog.1 mph55%30.15 "Hg0 mi
2:30 AM-54 °FFog.1 mph55%30.15 "Hg0 mi
2:00 AM-54 °FFog.No wind55%30.12 "Hg0 mi
1:30 AM-54 °FFog.No wind55%30.12 "Hg0 mi
1:00 AM-54 °FFog.1 mph55%30.12 "Hg0 mi
12:30 AM-53 °FFog.No wind55%30.12 "Hg0 mi
12:00 AM-53 °FFog.No wind55%30.12 "Hg0 mi
11:30 PM
Dec 22
-54 °FFog.1 mph55%30.12 "Hg0 mi
11:00 PM-53 °FFog.1 mph55%30.12 "Hg0 mi
10:30 PM-51 °FFog.No wind56%30.12 "Hg0 mi
10:00 PM-51 °FFog.No wind56%30.12 "Hg0 mi
9:30 PM-51 °FFog.No wind56%30.12 "Hg0 mi
9:00 PM-53 °FFog.No wind55%30.12 "Hg0 mi
8:30 PM-53 °FFog.No wind55%30.12 "Hg0 mi
8:00 PM-53 °FFog.No wind55%30.12 "Hg0 mi
7:30 PM-53 °FFog.No wind55%30.12 "Hg0 mi
7:00 PM-53 °FFog.No wind55%30.12 "Hg0 mi
6:30 PM-53 °FFog.No wind55%30.12 "Hg0 mi
6:00 PM-54 °FFog.No wind55%30.12 "Hg0 mi
5:30 PM-54 °FFog.No wind48%30.12 "Hg0 mi
5:00 PM-56 °FFog.No wind54%30.12 "Hg0 mi
4:30 PM-56 °FFog.No wind54%30.09 "Hg0 mi
4:00 PM-56 °FFog.No wind54%30.09 "Hg1 mi
3:30 PM-56 °FIce fog.No wind54%30.09 "Hg1 mi
3:00 PM-56 °FIce fog.1 mph54%30.09 "Hg1 mi
2:30 PM-56 °FFog.No wind54%30.09 "Hg0 mi
2:00 PM-54 °FFog.No wind55%30.09 "Hg0 mi
1:30 PM-56 °FFog.No wind54%30.09 "Hg0 mi
12:30 PM-56 °FFog.No wind54%30.09 "Hg0 mi
12:00 PM-54 °FFog.No wind55%30.12 "Hg0 mi
11:30 AM-56 °FFog.No wind54%30.12 "Hg0 mi
11:00 AM-56 °FFog.No wind54%30.12 "Hg1 mi
10:30 AM-56 °FFog.No wind48%30.12 "Hg1 mi
10:00 AM-58 °FFog.No wind54%30.12 "Hg1 mi
9:30 AM-58 °FFog.No wind54%30.12 "Hg1 mi
9:00 AM-58 °FFog.1 mph54%30.12 "Hg0 mi
Weather by CustomWeather, © 2014

See weather overviewHow to use our weather pages